PRAETORIAN SDA_621

Last updated on Sun Jun 21 2026 00:03:46 GMT+0000 (Coordinated Universal Time)

1 65584U 25203V 26171.26961720 .00000043 00000+0 27910-4 0 9999 2 65584 81.3020 7.8711 0007532 170.2935 189.8368 13.83801503 39122
UTC large
Height (km)
Speed (km/s)
/
Latitude / Longitude
Inclination (degrees)
Orbital Period (minutes)
Azimuth
Elevation
Range (km)
Doppler Factor

Next 0 passes for location: London (51.5072 / 0.1276)

No passes found over London.
PRAETORIAN SDA_621